User: anonymous   Login
Location: Bacharowice
(49.9333°N, 19.5833°E)
Time: 22:25:41
(UTC+00:00)
Language:

Cosmos 1908 Rocket - Orbit

View from above orbital plane
View from above orbital plane
View from above satellite
View from above satellite

Ground track
Ground track

The orbit data is extracted from the following two-line orbital elements,

1 18749U 88001B   21213.57652769  .00000073  00000-0  59332-5 0  9999
2 18749  82.5164 333.2858 0019476  30.8545 339.9619 14.83268171792662
Epoch (UTC): 01 August 2021 13:50:11
Eccentricity: 0.0019476
inclination: 82.5164°
perigee height: 605 km
apogee height: 632 km
right ascension of ascending node: 333.2858°
argument of perigee: 30.8545°
revolutions per day: 14.83268171
mean anomaly at epoch: 339.9619°
orbit number at epoch: 79266

The dashed part of the orbit path shows where the satellite is in the earth's shadow,  

DLR